Total_Precipitation_Accumulation
0.00 0.00 0.00 0.00 0.00 0.00 0.00 0.00 0.00 0.00 0.00 0.00 0.00 0.00 0.00 0.00 0.00 0.00 0.00 0.00 0.11 0.04 0.01 0.06 0.08 0.05 0.04 0.04 0.04 0.03 0.03 0.01 0.01 0.02 0.01 0.01 0.02 0.01 0.02 0.00 0.00 0.00 0.04 0.06 0.05 0.09 0.16 0.11 0.04
0.00 0.00 0.00 0.00 0.00 0.00 0.00 0.00 0.00 0.00 0.00 0.00 0.00 0.00 0.00 0.00 0.00 0.00 0.00 0.01 0.07 0.16 0.10 0.09 0.12 0.08 0.05 0.05 0.03 0.05 0.05 0.04 0.01 0.03 0.02 0.02 0.02 0.01 0.02 0.00 0.00 0.04 0.06 0.07 0.06 0.10 0.10 0.06 0.04
0.00 0.00 0.00 0.00 0.00 0.00 0.00 0.00 0.00 0.00 0.00 0.00 0.00 0.00 0.00 0.00 0.00 0.00 0.00 0.02 0.18 0.33 0.34 0.57 0.53 0.36 0.25 0.14 0.07 0.08 0.06 0.05 0.02 0.03 0.04 0.04 0.04 0.04 0.00 0.00 0.03 0.05 0.04 0.05 0.07 0.03 0.03 0.04 0.01
0.00 0.00 0.00 0.00 0.00 0.00 0.00 0.00 0.00 0.00 0.00 0.00 0.00 0.00 0.00 0.00 0.00 0.00 0.00 0.00 0.09 0.34 0.44 0.33 0.47 0.76 0.94 0.76 0.31 0.18 0.13 0.08 0.03 0.03 0.02 0.04 0.07 0.07 0.02 0.02 0.04 0.02 0.04 0.05 0.04 0.01 0.02 0.01 0.00
0.00 0.00 0.00 0.00 0.00 0.00 0.00 0.00 0.00 0.00 0.00 0.00 0.00 0.00 0.00 0.00 0.00 0.00 0.00 0.00 0.01 0.11 0.30 0.50 0.58 0.69 0.91 1.20 1.13 0.62 0.26 0.15 0.08 0.06 0.05 0.04 0.10 0.11 0.04 0.05 0.03 0.02 0.04 0.04 0.02 0.01 0.01 0.00 0.00
0.00 0.00 0.00 0.00 0.00 0.00 0.00 0.00 0.00 0.00 0.00 0.00 0.00 0.00 0.00 0.00 0.00 0.00 0.00 0.00 0.00 0.12 0.30 0.42 0.52 0.48 0.57 0.72 1.02 1.05 0.95 0.55 0.31 0.17 0.12 0.08 0.16 0.09 0.04 0.03 0.02 0.02 0.03 0.02 0.02 0.00 0.00 0.00 0.00
0.00 0.00 0.00 0.00 0.00 0.00 0.00 0.00 0.00 0.00 0.00 0.00 0.00 0.00 0.00 0.00 0.00 0.00 0.00 0.00 0.00 0.07 0.23 0.45 0.48 0.44 0.63 0.78 1.04 1.11 1.00 1.07 0.76 0.43 0.17 0.13 0.13 0.08 0.06 0.06 0.02 0.03 0.05 0.04 0.02 0.00 0.00 0.00 0.00
0.00 0.00 0.00 0.00 0.00 0.00 0.00 0.00 0.00 0.00 0.00 0.00 0.00 0.00 0.00 0.00 0.00 0.00 0.00 0.00 0.00 0.02 0.09 0.30 0.47 0.45 0.39 0.59 0.82 1.06 0.98 1.19 1.05 0.62 0.44 0.16 0.06 0.25 0.16 0.10 0.01 0.05 0.05 0.03 0.02 0.00 0.00 0.00 0.00
0.00 0.00 0.00 0.00 0.00 0.00 0.00 0.00 0.00 0.00 0.00 0.00 0.00 0.00 0.00 0.00 0.00 0.00 0.00 0.00 0.00 0.01 0.04 0.26 0.44 0.50 0.46 0.39 0.48 0.82 1.02 0.86 0.77 0.71 0.60 0.37 0.13 0.25 0.28 0.14 0.01 0.02 0.05 0.00 0.01 0.01 0.01 0.00 0.00
0.00 0.00 0.00 0.00 0.00 0.00 0.00 0.00 0.00 0.00 0.00 0.00 0.00 0.00 0.00 0.00 0.00 0.00 0.00 0.00 0.00 0.00 0.02 0.18 0.60 0.48 0.44 0.36 0.43 0.65 0.99 0.87 0.71 0.58 0.49 0.26 0.17 0.17 0.18 0.20 0.02 0.02 0.02 0.00 0.00 0.01 0.00 0.00 0.00
0.00 0.00 0.00 0.00 0.00 0.00 0.00 0.00 0.00 0.00 0.00 0.00 0.00 0.00 0.00 0.00 0.00 0.00 0.00 0.00 0.00 0.00 0.01 0.28 1.06 1.45 0.99 0.80 0.55 0.46 0.57 0.75 0.80 0.74 0.62 0.42 0.49 0.31 0.23 0.30 0.18 0.12 0.04 0.04 0.00 0.00 0.00 0.00 0.00
0.00 0.00 0.00 0.00 0.00 0.00 0.00 0.00 0.00 0.00 0.00 0.00 0.00 0.00 0.00 0.00 0.00 0.00 0.00 0.00 0.00 0.00 0.00 0.10 0.99 1.63 1.95 1.32 1.03 0.67 0.42 0.41 0.47 0.47 0.58 0.58 0.56 0.24 0.04 0.05 0.13 0.07 0.04 0.02 0.01 0.00 0.00 0.00 0.00
0.00 0.00 0.00 0.00 0.00 0.00 0.00 0.00 0.00 0.00 0.00 0.00 0.00 0.00 0.00 0.00 0.00 0.00 0.00 0.00 0.00 0.00 0.00 0.03 0.59 0.82 1.16 1.19 1.00 0.78 0.68 0.49 0.35 0.32 0.39 0.43 0.37 0.17 0.06 0.03 0.08 0.09 0.01 0.03 0.00 0.00 0.00 0.00 0.00
0.00 0.00 0.00 0.00 0.00 0.00 0.00 0.00 0.00 0.00 0.00 0.00 0.00 0.00 0.00 0.00 0.00 0.00 0.00 0.00 0.00 0.00 0.00 0.01 0.28 0.70 1.11 1.07 1.13 0.76 0.63 0.87 0.77 0.45 0.30 0.32 0.26 0.17 0.12 0.05 0.03 0.03 0.02 0.02 0.01 0.00 0.00 0.00 0.00
0.00 0.00 0.00 0.00 0.00 0.00 0.00 0.00 0.00 0.00 0.00 0.00 0.00 0.00 0.00 0.00 0.00 0.00 0.00 0.00 0.00 0.00 0.00 0.00 0.19 0.53 0.94 1.05 1.12 1.20 0.78 0.65 0.80 0.94 0.72 0.53 0.48 0.29 0.19 0.12 0.06 0.02 0.01 0.01 0.00 0.00 0.00 0.00 0.00
0.00 0.00 0.00 0.00 0.00 0.00 0.00 0.00 0.00 0.00 0.00 0.00 0.00 0.00 0.00 0.00 0.00 0.00 0.00 0.00 0.00 0.00 0.00 0.00 0.15 0.50 0.98 0.96 0.79 1.06 1.20 0.75 0.75 0.91 0.88 0.89 0.65 0.50 0.60 0.43 0.25 0.10 0.05 0.01 0.01 0.01 0.00 0.00 0.00
0.00 0.00 0.00 0.00 0.00 0.00 0.00 0.00 0.00 0.00 0.00 0.00 0.00 0.00 0.00 0.00 0.00 0.00 0.00 0.00 0.00 0.00 0.00 0.01 0.12 0.47 0.82 1.00 0.86 0.75 1.38 0.80 0.63 0.74 0.86 0.55 0.51 0.51 0.36 0.31 0.23 0.18 0.10 0.04 0.02 0.00 0.00 0.00 0.00
0.00 0.01 0.00 0.00 0.00 0.00 0.00 0.00 0.00 0.00 0.00 0.00 0.00 0.00 0.00 0.00 0.00 0.00 0.00 0.00 0.00 0.00 0.00 0.00 0.08 0.34 0.61 0.86 0.75 0.52 1.25 1.03 0.61 0.56 0.77 0.95 0.58 0.39 0.52 0.31 0.17 0.13 0.10 0.06 0.01 0.00 0.00 0.00 0.00
0.01 0.01 0.00 0.00 0.00 0.00 0.00 0.00 0.00 0.00 0.00 0.00 0.00 0.00 0.00 0.00 0.00 0.00 0.00 0.00 0.00 0.00 0.00 0.00 0.08 0.22 0.48 0.85 0.64 0.49 1.05 1.25 0.82 0.47 0.41 0.57 0.82 0.73 0.43 0.47 0.32 0.18 0.09 0.05 0.03 0.02 0.01 0.00 0.00
0.01 0.01 0.00 0.00 0.00 0.00 0.00 0.00 0.00 0.00 0.00 0.00 0.00 0.00 0.00 0.00 0.00 0.00 0.00 0.00 0.00 0.00 0.00 0.02 0.12 0.22 0.51 1.03 0.85 0.46 0.49 0.94 0.57 0.60 0.40 0.27 0.21 0.34 0.51 0.31 0.33 0.29 0.16 0.11 0.10 0.05 0.02 0.01 0.00
0.00 0.00 0.01 0.01 0.00 0.00 0.00 0.00 0.00 0.00 0.00 0.00 0.00 0.00 0.00 0.00 0.00 0.00 0.00 0.00 0.00 0.00 0.00 0.01 0.11 0.19 0.48 0.91 1.11 0.57 0.42 0.78 0.47 0.39 0.35 0.28 0.27 0.17 0.21 0.40 0.22 0.19 0.24 0.18 0.12 0.09 0.07 0.04 0.01
0.01 0.01 0.01 0.01 0.04 0.02 0.04 0.13 0.00 0.00 0.00 0.00 0.00 0.00 0.00 0.00 0.00 0.00 0.00 0.00 0.00 0.00 0.00 0.02 0.07 0.14 0.34 0.56 1.25 1.08 0.79 0.96 0.87 0.57 0.28 0.10 0.11 0.24 0.17 0.18 0.40 0.21 0.11 0.13 0.11 0.10 0.07 0.06 0.05
0.00 0.00 0.00 0.02 0.08 0.11 0.01 0.15 0.01 0.00 0.00 0.00 0.00 0.00 0.00 0.00 0.00 0.00 0.00 0.00 0.00 0.00 0.00 0.02 0.05 0.10 0.28 0.42 0.86 1.07 0.87 0.79 0.78 0.93 0.70 0.31 0.06 0.06 0.17 0.19 0.22 0.34 0.20 0.10 0.06 0.05 0.04 0.04 0.03
0.00 0.00 0.00 0.02 0.07 0.14 0.01 0.06 0.02 0.02 0.01 0.01 0.00 0.00 0.00 0.00 0.00 0.00 0.00 0.00 0.01 0.00 0.03 0.05 0.05 0.07 0.16 0.30 0.55 0.50 0.44 0.50 0.46 0.60 0.73 0.54 0.34 0.06 0.06 0.12 0.25 0.24 0.34 0.17 0.09 0.06 0.04 0.02 0.03
0.02 0.09 0.04 0.05 0.10 0.04 0.03 0.19 0.04 0.06 0.01 0.02 0.00 0.00 0.00 0.00 0.01 0.01 0.00 0.01 0.02 0.04 0.11 0.09 0.04 0.05 0.13 0.27 0.86 0.99 0.45 0.29 0.32 0.31 0.42 0.36 0.52 0.24 0.03 0.03 0.08 0.24 0.22 0.38 0.21 0.12 0.12 0.05 0.02
0.08 0.15 0.13 0.13 0.18 0.20 0.13 0.38 0.30 0.19 0.08 0.02 0.02 0.02 0.01 0.01 0.01 0.01 0.00 0.02 0.07 0.18 0.25 0.30 0.11 0.10 0.15 0.20 0.62 1.13 0.93 0.30 0.27 0.26 0.25 0.24 0.19 0.42 0.14 0.02 0.02 0.02 0.15 0.17 0.30 0.27 0.19 0.19 0.15
0.17 0.22 0.17 0.23 0.15 0.30 0.29 0.20 0.26 0.41 0.27 0.11 0.14 0.04 0.03 0.03 0.02 0.01 0.06 0.14 0.28 0.25 0.27 0.35 0.12 0.08 0.15 0.21 0.33 0.84 1.43 0.65 0.40 0.39 0.30 0.20 0.16 0.24 0.49 0.21 0.05 0.04 0.02 0.11 0.18 0.17 0.24 0.30 0.30
0.18 0.32 0.39 0.36 0.30 0.34 0.09 0.14 0.63 0.61 0.52 0.28 0.26 0.27 0.12 0.06 0.06 0.10 0.22 0.29 0.42 0.26 0.21 0.37 0.30 0.06 0.10 0.32 0.27 0.56 1.27 1.60 1.07 0.56 0.40 0.23 0.18 0.17 0.31 0.53 0.31 0.12 0.07 0.04 0.09 0.14 0.09 0.19 0.30
0.21 0.39 0.40 0.40 0.32 0.53 0.22 0.47 1.21 1.34 1.30 1.06 0.61 0.56 0.35 0.24 0.26 0.50 0.52 0.51 0.45 0.35 0.28 0.44 0.54 0.22 0.12 0.31 0.40 0.30 0.54 1.26 1.14 1.46 0.72 0.44 0.20 0.18 0.20 0.27 0.44 0.37 0.17 0.09 0.06 0.06 0.09 0.09 0.10
0.28 0.30 0.19 0.39 0.34 0.27 0.36 0.82 1.52 2.03 1.80 1.28 0.91 0.78 0.76 0.67 1.08 1.03 0.66 0.67 0.98 1.03 0.80 0.83 1.01 0.58 0.22 0.23 0.19 0.24 0.30 0.79 0.61 1.09 1.31 0.98 0.49 0.31 0.22 0.20 0.25 0.29 0.36 0.23 0.12 0.09 0.08 0.06 0.09